Location: Cheadle
(51.0146°N, 113.5417°W)
Time: 06:05:05
(UTC+00:00)

BlueWalker 3 - Pass Details

Date: 25 April 2024
Orbit: 481 x 494 km, 53.2° (Epoch: 28 May)

Event Time Altitude Azimuth Distance (km) Brightness Sun altitude
Rises 03:40:36 0° 264° (W) 2,569 6.4 -8.4°
Reaches altitude 10° 03:42:47 10° 267° (W) 1,690 5.5 -8.7°
Maximum altitude 03:46:35 66° 350° (N) 544 2.3 -9.2°
Drops below altitude 10° 03:50:24 10° 74° (ENE) 1,698 4.3 -9.7°
Enters shadow 03:51:43 - 76° (ENE) 2,228 4.8 -9.8°
